Terminal Aerodrome Forecast
Issued by NWS New Orleans/Baton Rouge, LA

Home | Current Version | Previous Version | Text Only | Print | Product List | Glossary On
Versions: 1 2 3 4 5 6 7 8 9 10 11 12 13
000
FTUS44 KLIX 021722
TAFBTR
TAF
KBTR 021722Z 0218/0318 VRB04KT P6SM BKN110
     FM022100 VRB04KT P6SM VCTS SCT030CB BKN110
     FM030100 VRB04KT P6SM BKN250=

USA.gov is the U.S. government's official web portal to all federal, state and local government web resources and services.